DECAYED

OBJECT C, 57006 (Decayed)

Orbit data source: Space-Track

You're viewing an Uncataloged Satellite

Recently launched and/or uncataloged satellites may have evolving metadata. Metadata may include but not limited to: Owner, Maufacturer, Bus, Motor, and Mission.

OBJECT C, 57006 was a Chinese satellite in LEO that was launched on Thu, 15 Jun 2023 UTC via a CHANG ZHENG 2D launch vehicle from the Taiyaun Space Center, China (TSC). Unknown objects in Earth's orbit typically refer to objects detected orbiting the Earth but have not yet been identified or cataloged. These objects could be anything from previously untracked satellites, spent rocket stages, debris from satellite collisions, or even natural meteoroids temporarily captured by Earth's gravity. This object's orbit decayed before it could be identified.

Not visible in the next 10 days
Identifier
57006, 2023-085C
Orbit
Decayed
Country
Flag of CNCN / PRC
Related business
None
Manufacturer
Unknown
Mission
Decayed Commercial Imaging
Bus & Motor
Unknown
Mass
Unknown
Launch date (UTC)
2023-06-15 (3 years ago)
Launch vehicle
CHANG ZHENG 2D
Launch site
Taiyaun Space Center, China (TSC)
Object type
Unknown
Shape & HBR
Box, 0.8 m
Radar Cross Section
2.000 m², Medium (>0.1 m² and < 1m²)

Expand to show TLE details & history
Last TLE update: 5 months ago

TLE from 5 months ago
0 OBJECT C
1 57006U 23085C   26034.38470854  .03891872  24689-5  17208-2 0  9992
2 57006  97.4539 162.0997 0005796 282.5118  77.5523 16.22363646147386
Epoch: 2026-02-03T09:13Z
TLE epoch observation values (Epoch: 2026-02-03T09:13:58.817Z)
Latitude
-0.00008°
Longitude
-109.96177°
Altitude
215.547 km
Speed
7.778 km/s
True Right ascension
10h 48m 23s
True Declination
0° 00' 00"
Sunlit
Object was in full shadow at epoch
Visualization orbit readout
Latitude
Unknown
Longitude
Unknown
Altitude
Unknown
Speed
Unknown
Apparent Right ascension
Unknown
Apparent Declination
Unknown
Sunlit
N/A
Visualization observer readout
Local Sidereal Time
21:26:24
Azimuth
Unknown
Elevation
Unknown
Doppler factor
Unknown
Orbital elements
Apogee altitude
213.794 km
Perigee altitude
206.157 km
Semi-major axis
6,588.112 km
Eccentricity
0.00058
Inclination
97.4539°
RAAN
162.0997°
Arg. of periapsis
282.5118°
True anomaly
77.61717°
Mean anomaly
77.5523°
Eccentric anomaly
77.58473°
Mean motion
4.05884 °/min
Orbital period
88.7 mins
BSTAR
0.0017208
Loading maneuver chart data...
Computing Atmospheric mass density...
Loading historical data...
Loading historical data...
Loading historical data...
Loading historical data...
Loading historical data...
Loading historical data...
Loading historical data...

Documentation

Showing up to 5 results
|